Time,TemperatureF,DewpointF,PressureIn,WindDirection,WindDirectionDegrees,WindSpeedMPH,WindSpeedGustMPH,Humidity,HourlyPrecipIn,Conditions,Clouds,dailyrainin,SoftwareType,DateUTC
2013-08-11 00:01:00,61.2,46.8,30.11,WSW,257,2.0,2.0,59,0.00,,,0.00,Wunderground v.1.15,2013-08-11 04:01:00,
2013-08-11 00:10:00,61.0,47.0,30.10,West,273,2.0,2.0,60,0.00,,,0.00,Wunderground v.1.15,2013-08-11 04:10:00,
2013-08-11 00:20:00,60.9,46.9,30.10,West,259,2.0,4.0,60,0.00,,,0.00,Wunderground v.1.15,2013-08-11 04:20:00,
2013-08-11 00:25:00,60.8,46.8,30.10,SW,236,2.0,4.0,60,0.00,,,0.00,Wunderground v.1.15,2013-08-11 04:25:00,
2013-08-11 00:30:00,60.7,46.7,30.10,WSW,238,3.0,5.0,60,0.00,,,0.00,Wunderground v.1.15,2013-08-11 04:30:00,
2013-08-11 00:35:00,60.7,46.7,30.10,SW,216,4.0,5.0,60,0.00,,,0.00,Wunderground v.1.15,2013-08-11 04:35:00,
2013-08-11 00:40:00,60.8,46.4,30.10,WSW,242,4.0,4.0,59,0.00,,,0.00,Wunderground v.1.15,2013-08-11 04:40:00,
2013-08-11 00:45:00,60.7,46.7,30.10,WSW,255,4.0,4.0,60,0.00,,,0.00,Wunderground v.1.15,2013-08-11 04:45:00,
2013-08-11 00:50:00,60.5,46.5,30.10,West,276,4.0,4.0,60,0.00,,,0.00,Wunderground v.1.15,2013-08-11 04:50:00,
2013-08-11 01:00:00,60.3,46.8,30.10,SW,217,4.0,4.0,61,0.00,,,0.00,Wunderground v.1.15,2013-08-11 05:00:00,
2013-08-11 01:10:00,60.3,46.8,30.10,WSW,256,5.0,5.0,61,0.00,,,0.00,Wunderground v.1.15,2013-08-11 05:10:00,
2013-08-11 01:15:00,60.2,46.7,30.10,WSW,240,5.0,7.0,61,0.00,,,0.00,Wunderground v.1.15,2013-08-11 05:15:00,
2013-08-11 01:20:00,60.1,46.6,30.10,West,267,5.0,5.0,61,0.00,,,0.00,Wunderground v.1.15,2013-08-11 05:20:00,
2013-08-11 01:25:00,60.0,46.5,30.10,West,275,5.0,5.0,61,0.00,,,0.00,Wunderground v.1.15,2013-08-11 05:25:00,
2013-08-11 01:30:00,59.9,46.4,30.10,SW,236,5.0,5.0,61,0.00,,,0.00,Wunderground v.1.15,2013-08-11 05:30:00,
2013-08-11 01:35:00,59.7,46.7,30.11,WSW,237,4.0,5.0,62,0.00,,,0.00,Wunderground v.1.15,2013-08-11 05:35:00,
2013-08-11 01:40:00,59.9,46.4,30.11,West,259,4.0,4.0,61,0.00,,,0.00,Wunderground v.1.15,2013-08-11 05:40:00,
2013-08-11 01:50:00,60.3,46.4,30.11,West,265,3.0,3.0,60,0.00,,,0.00,Wunderground v.1.15,2013-08-11 05:50:00,
2013-08-11 02:00:00,59.8,46.3,30.11,SW,219,1.0,2.0,61,0.00,,,0.00,Wunderground v.1.15,2013-08-11 06:00:00,
2013-08-11 02:05:00,59.6,46.1,30.11,SW,230,2.0,3.0,61,0.00,,,0.00,Wunderground v.1.15,2013-08-11 06:05:00,
2013-08-11 02:10:00,59.6,46.1,30.11,West,269,2.0,2.0,61,0.00,,,0.00,Wunderground v.1.15,2013-08-11 06:10:00,
2013-08-11 02:20:00,59.9,46.0,30.11,WSW,244,2.0,2.0,60,0.00,,,0.00,Wunderground v.1.15,2013-08-11 06:20:00,
2013-08-11 02:25:00,59.8,45.9,30.11,West,267,2.0,2.0,60,0.00,,,0.00,Wunderground v.1.15,2013-08-11 06:25:00,
2013-08-11 02:30:00,59.7,45.8,30.11,WSW,247,2.0,2.0,60,0.00,,,0.00,Wunderground v.1.15,2013-08-11 06:30:00,
2013-08-11 02:35:00,59.6,45.7,30.11,WSW,245,2.0,2.0,60,0.00,,,0.00,Wunderground v.1.15,2013-08-11 06:35:00,
2013-08-11 02:40:00,59.6,45.7,30.11,WSW,243,2.0,3.0,60,0.00,,,0.00,Wunderground v.1.15,2013-08-11 06:40:00,
2013-08-11 02:45:00,59.6,45.7,30.11,SW,222,2.0,3.0,60,0.00,,,0.00,Wunderground v.1.15,2013-08-11 06:45:00,
2013-08-11 02:55:00,59.0,46.0,30.11,SW,234,2.0,2.0,62,0.00,,,0.00,Wunderground v.1.15,2013-08-11 06:55:00,
2013-08-11 03:00:00,58.8,45.8,30.11,SSW,213,2.0,2.0,62,0.00,,,0.00,Wunderground v.1.15,2013-08-11 07:00:00,
2013-08-11 03:05:00,58.7,45.7,30.11,SW,229,2.0,2.0,62,0.00,,,0.00,Wunderground v.1.15,2013-08-11 07:05:00,
2013-08-11 03:15:00,58.7,45.7,30.11,WSW,242,2.0,3.0,62,0.00,,,0.00,Wunderground v.1.15,2013-08-11 07:15:00,
2013-08-11 03:25:00,58.4,46.3,30.11,SW,231,2.0,2.0,64,0.00,,,0.00,Wunderground v.1.15,2013-08-11 07:25:00,
2013-08-11 03:30:00,58.2,46.1,30.11,SSW,211,2.0,2.0,64,0.00,,,0.00,Wunderground v.1.15,2013-08-11 07:30:00,
2013-08-11 03:40:00,58.0,45.9,30.11,SW,236,2.0,2.0,64,0.00,,,0.00,Wunderground v.1.15,2013-08-11 07:40:00,
2013-08-11 03:45:00,58.0,45.9,30.11,SW,236,1.0,2.0,64,0.00,,,0.00,Wunderground v.1.15,2013-08-11 07:45:00,
2013-08-11 03:50:00,58.0,47.1,30.11,SW,231,0.0,3.0,67,0.00,,,0.00,Wunderground v.1.15,2013-08-11 07:50:00,
2013-08-11 03:55:00,57.6,45.9,30.11,SW,231,1.0,3.0,65,0.00,,,0.00,Wunderground v.1.15,2013-08-11 07:55:00,
2013-08-11 04:00:00,57.6,45.9,30.11,SW,226,1.0,2.0,65,0.00,,,0.00,Wunderground v.1.15,2013-08-11 08:00:00,
2013-08-11 04:05:00,57.8,45.7,30.11,WSW,248,1.0,2.0,64,0.00,,,0.00,Wunderground v.1.15,2013-08-11 08:05:00,
2013-08-11 04:10:00,58.1,46.0,30.11,WSW,239,2.0,2.0,64,0.00,,,0.00,Wunderground v.1.15,2013-08-11 08:10:00,
2013-08-11 04:15:00,58.4,45.8,30.11,SW,228,2.0,2.0,63,0.00,,,0.00,Wunderground v.1.15,2013-08-11 08:15:00,
2013-08-11 04:20:00,58.4,45.8,30.11,SW,220,2.0,2.0,63,0.00,,,0.00,Wunderground v.1.15,2013-08-11 08:20:00,
2013-08-11 04:30:00,58.3,46.2,30.11,SW,234,3.0,5.0,64,0.00,,,0.00,Wunderground v.1.15,2013-08-11 08:30:00,
2013-08-11 04:35:00,58.1,46.4,30.10,SW,221,3.0,5.0,65,0.00,,,0.00,Wunderground v.1.15,2013-08-11 08:35:00,
2013-08-11 04:40:00,58.0,46.3,30.11,WSW,247,3.0,3.0,65,0.00,,,0.00,Wunderground v.1.15,2013-08-11 08:40:00,
2013-08-11 04:45:00,57.8,46.5,30.11,West,259,3.0,3.0,66,0.00,,,0.00,Wunderground v.1.15,2013-08-11 08:45:00,
2013-08-11 04:50:00,57.5,46.2,30.11,SW,215,3.0,3.0,66,0.00,,,0.00,Wunderground v.1.15,2013-08-11 08:50:00,
2013-08-11 04:55:00,57.4,46.5,30.11,WSW,255,3.0,3.0,67,0.00,,,0.00,Wunderground v.1.15,2013-08-11 08:55:00,
2013-08-11 05:00:00,57.1,46.6,30.12,SW,226,4.0,4.0,68,0.00,,,0.00,Wunderground v.1.15,2013-08-11 09:00:00,
2013-08-11 05:05:00,57.2,46.7,30.11,WSW,254,4.0,5.0,68,0.00,,,0.00,Wunderground v.1.15,2013-08-11 09:05:00,
2013-08-11 05:10:00,57.1,46.6,30.12,SW,225,4.0,4.0,68,0.00,,,0.00,Wunderground v.1.15,2013-08-11 09:10:00,
2013-08-11 05:15:00,57.2,46.7,30.11,SW,216,4.0,4.0,68,0.00,,,0.00,Wunderground v.1.15,2013-08-11 09:15:00,
2013-08-11 05:20:00,57.5,46.6,30.12,West,280,4.0,4.0,67,0.00,,,0.00,Wunderground v.1.15,2013-08-11 09:20:00,
2013-08-11 05:25:00,57.9,46.6,30.12,WSW,238,4.0,4.0,66,0.00,,,0.00,Wunderground v.1.15,2013-08-11 09:25:00,
2013-08-11 05:30:00,57.9,46.6,30.12,SSW,211,4.0,4.0,66,0.00,,,0.00,Wunderground v.1.15,2013-08-11 09:30:00,
2013-08-11 05:35:00,57.9,46.6,30.12,SSW,205,3.0,4.0,66,0.00,,,0.00,Wunderground v.1.15,2013-08-11 09:35:00,
2013-08-11 05:40:00,57.9,46.6,30.12,SW,226,3.0,3.0,66,0.00,,,0.00,Wunderground v.1.15,2013-08-11 09:40:00,
2013-08-11 05:50:00,57.9,46.6,30.13,WSW,237,2.0,2.0,66,0.00,,,0.00,Wunderground v.1.15,2013-08-11 09:50:00,
2013-08-11 05:55:00,58.0,46.7,30.13,SW,232,3.0,4.0,66,0.00,,,0.00,Wunderground v.1.15,2013-08-11 09:55:00,
2013-08-11 06:00:00,58.1,46.8,30.13,WSW,239,3.0,3.0,66,0.00,,,0.00,Wunderground v.1.15,2013-08-11 10:00:00,
2013-08-11 06:10:00,58.1,46.8,30.13,SW,217,3.0,3.0,66,0.00,,,0.00,Wunderground v.1.15,2013-08-11 10:10:00,
2013-08-11 06:20:00,58.3,47.0,30.13,WSW,250,3.0,5.0,66,0.00,,,0.00,Wunderground v.1.15,2013-08-11 10:20:00,
2013-08-11 06:35:00,58.4,47.5,30.14,WSW,250,3.0,4.0,67,0.00,,,0.00,Wunderground v.1.15,2013-08-11 10:35:00,
2013-08-11 06:40:00,58.7,47.8,30.13,WSW,240,4.0,4.0,67,0.00,,,0.00,Wunderground v.1.15,2013-08-11 10:40:00,
2013-08-11 06:45:00,58.8,47.9,30.13,WSW,240,5.0,5.0,67,0.00,,,0.00,Wunderground v.1.15,2013-08-11 10:45:00,
2013-08-11 06:50:00,58.8,47.9,30.13,SW,220,5.0,6.0,67,0.00,,,0.00,Wunderground v.1.15,2013-08-11 10:50:00,
2013-08-11 07:00:00,59.2,48.2,30.14,WSW,244,4.0,4.0,67,0.00,,,0.00,Wunderground v.1.15,2013-08-11 11:00:00,
2013-08-11 07:05:00,59.4,48.0,30.14,West,260,4.0,7.0,66,0.00,,,0.00,Wunderground v.1.15,2013-08-11 11:05:00,
2013-08-11 07:25:00,59.5,48.9,30.14,SW,225,4.0,7.0,68,0.00,,,0.00,Wunderground v.1.15,2013-08-11 11:25:00,
2013-08-11 07:30:00,59.6,48.6,30.14,SSW,202,4.0,4.0,67,0.00,,,0.00,Wunderground v.1.15,2013-08-11 11:30:00,
2013-08-11 07:35:00,59.9,49.3,30.14,SW,234,4.0,4.0,68,0.00,,,0.00,Wunderground v.1.15,2013-08-11 11:35:00,
2013-08-11 07:40:00,60.1,49.1,30.14,WSW,253,3.0,4.0,67,0.00,,,0.00,Wunderground v.1.15,2013-08-11 11:40:00,
2013-08-11 07:45:00,60.2,49.6,30.15,SW,227,3.0,4.0,68,0.00,,,0.00,Wunderground v.1.15,2013-08-11 11:45:00,
2013-08-11 07:50:00,60.4,49.8,30.15,West,267,3.0,4.0,68,0.00,,,0.00,Wunderground v.1.15,2013-08-11 11:50:00,
2013-08-11 07:55:00,60.5,49.5,30.15,WNW,302,3.0,4.0,67,0.00,,,0.00,Wunderground v.1.15,2013-08-11 11:55:00,
2013-08-11 08:00:00,60.8,49.8,30.15,West,269,2.0,3.0,67,0.00,,,0.00,Wunderground v.1.15,2013-08-11 12:00:00,
2013-08-11 08:10:00,61.0,50.0,30.15,WNW,298,3.0,5.0,67,0.00,,,0.00,Wunderground v.1.15,2013-08-11 12:10:00,
2013-08-11 08:15:00,61.1,50.1,30.15,West,271,3.0,5.0,67,0.00,,,0.00,Wunderground v.1.15,2013-08-11 12:15:00,
2013-08-11 08:25:00,61.4,50.3,30.16,WNW,286,2.0,3.0,67,0.00,,,0.00,Wunderground v.1.15,2013-08-11 12:25:00,
2013-08-11 08:35:00,62.0,51.3,30.16,WSW,254,1.0,3.0,68,0.00,,,0.00,Wunderground v.1.15,2013-08-11 12:35:00,
2013-08-11 08:45:00,62.6,51.5,30.15,WSW,245,1.0,1.0,67,0.00,,,0.00,Wunderground v.1.15,2013-08-11 12:45:00,
2013-08-11 08:50:00,62.9,50.5,30.15,WSW,245,1.0,1.0,64,0.00,,,0.00,Wunderground v.1.15,2013-08-11 12:50:00,
2013-08-11 08:55:00,63.5,51.5,30.16,WSW,245,0.0,1.0,65,0.00,,,0.00,Wunderground v.1.15,2013-08-11 12:55:00,
2013-08-11 09:00:00,64.1,51.7,30.16,WSW,246,0.0,0.0,64,0.00,,,0.00,Wunderground v.1.15,2013-08-11 13:00:00,
2013-08-11 09:05:00,64.5,51.6,30.16,WSW,245,0.0,0.0,63,0.00,,,0.00,Wunderground v.1.15,2013-08-11 13:05:00,
2013-08-11 09:10:00,64.9,51.6,30.15,WSW,240,1.0,1.0,62,0.00,,,0.00,Wunderground v.1.15,2013-08-11 13:10:00,
2013-08-11 09:15:00,65.2,52.7,30.16,WNW,300,1.0,2.0,64,0.00,,,0.00,Wunderground v.1.15,2013-08-11 13:15:00,
2013-08-11 09:20:00,65.0,51.7,30.16,NW,323,1.0,1.0,62,0.00,,,0.00,Wunderground v.1.15,2013-08-11 13:20:00,
2013-08-11 09:25:00,65.2,51.4,30.16,NNW,332,1.0,1.0,61,0.00,,,0.00,Wunderground v.1.15,2013-08-11 13:25:00,
2013-08-11 09:30:00,65.2,50.5,30.16,NNE,25,1.0,1.0,59,0.00,,,0.00,Wunderground v.1.15,2013-08-11 13:30:00,
2013-08-11 09:35:00,65.4,51.1,30.16,NNE,26,2.0,4.0,60,0.00,,,0.00,Wunderground v.1.15,2013-08-11 13:35:00,
2013-08-11 09:55:00,65.9,51.2,30.16,SSE,155,1.0,1.0,59,0.00,,,0.00,Wunderground v.1.15,2013-08-11 13:55:00,
2013-08-11 10:00:00,66.5,51.7,30.16,WNW,291,1.0,3.0,59,0.00,,,0.00,Wunderground v.1.15,2013-08-11 14:00:00,
2013-08-11 10:10:00,66.3,49.6,30.16,SW,232,2.0,2.0,55,0.00,,,0.00,Wunderground v.1.15,2013-08-11 14:10:00,
2013-08-11 10:15:00,66.8,50.6,30.16,NNW,327,1.0,2.0,56,0.00,,,0.00,Wunderground v.1.15,2013-08-11 14:15:00,
2013-08-11 10:25:00,67.4,49.7,30.17,NE,49,1.0,3.0,53,0.00,,,0.00,Wunderground v.1.15,2013-08-11 14:25:00,
2013-08-11 10:30:00,67.3,49.6,30.17,NE,51,1.0,1.0,53,0.00,,,0.00,Wunderground v.1.15,2013-08-11 14:30:00,
2013-08-11 10:35:00,67.6,50.4,30.17,WSW,249,1.0,3.0,54,0.00,,,0.00,Wunderground v.1.15,2013-08-11 14:35:00,
2013-08-11 10:40:00,67.6,49.3,30.16,West,267,1.0,6.0,52,0.00,,,0.00,Wunderground v.1.15,2013-08-11 14:40:00,
2013-08-11 10:45:00,67.4,50.2,30.16,West,265,3.0,6.0,54,0.00,,,0.00,Wunderground v.1.15,2013-08-11 14:45:00,
2013-08-11 10:50:00,67.7,49.9,30.16,SW,230,3.0,3.0,53,0.00,,,0.00,Wunderground v.1.15,2013-08-11 14:50:00,
2013-08-11 11:00:00,68.0,49.2,30.16,ENE,68,3.0,3.0,51,0.00,,,0.00,Wunderground v.1.15,2013-08-11 15:00:00,
2013-08-11 11:05:00,68.1,50.3,30.16,North,360,3.0,4.0,53,0.00,,,0.00,Wunderground v.1.15,2013-08-11 15:05:00,
2013-08-11 11:10:00,68.3,48.9,30.16,NW,324,3.0,3.0,50,0.00,,,0.00,Wunderground v.1.15,2013-08-11 15:10:00,
2013-08-11 11:15:00,68.7,48.8,30.16,NW,310,3.0,4.0,49,0.00,,,0.00,Wunderground v.1.15,2013-08-11 15:15:00,
2013-08-11 11:20:00,68.8,49.4,30.16,SW,231,2.0,2.0,50,0.00,,,0.00,Wunderground v.1.15,2013-08-11 15:20:00,
2013-08-11 11:25:00,69.4,49.9,30.16,WNW,292,1.0,2.0,50,0.00,,,0.00,Wunderground v.1.15,2013-08-11 15:25:00,
2013-08-11 11:30:00,69.5,50.0,30.15,North,350,1.0,1.0,50,0.00,,,0.00,Wunderground v.1.15,2013-08-11 15:30:00,
2013-08-11 11:35:00,70.1,50.6,30.15,NNE,13,1.0,1.0,50,0.00,,,0.00,Wunderground v.1.15,2013-08-11 15:35:00,
2013-08-11 11:45:00,69.6,50.1,30.16,NNW,328,2.0,3.0,50,0.00,,,0.00,Wunderground v.1.15,2013-08-11 15:45:00,
2013-08-11 11:50:00,69.1,49.7,30.16,WNW,296,3.0,3.0,50,0.00,,,0.00,Wunderground v.1.15,2013-08-11 15:50:00,
2013-08-11 11:55:00,69.0,49.6,30.16,NNE,31,3.0,3.0,50,0.00,,,0.00,Wunderground v.1.15,2013-08-11 15:55:00,
2013-08-11 12:00:00,69.2,50.8,30.16,SW,217,2.0,2.0,52,0.00,,,0.00,Wunderground v.1.15,2013-08-11 16:00:00,
2013-08-11 12:10:00,70.8,52.3,30.15,SSE,147,1.0,2.0,52,0.00,,,0.00,Wunderground v.1.15,2013-08-11 16:10:00,
2013-08-11 12:20:00,70.1,51.7,30.15,North,355,2.0,7.0,52,0.00,,,0.00,Wunderground v.1.15,2013-08-11 16:20:00,
2013-08-11 12:25:00,69.8,49.8,30.15,ENE,62,3.0,7.0,49,0.00,,,0.00,Wunderground v.1.15,2013-08-11 16:25:00,
2013-08-11 12:30:00,69.9,50.4,30.15,NNW,334,3.0,4.0,50,0.00,,,0.00,Wunderground v.1.15,2013-08-11 16:30:00,
2013-08-11 12:40:00,69.5,49.5,30.14,North,9,4.0,4.0,49,0.00,,,0.00,Wunderground v.1.15,2013-08-11 16:40:00,
2013-08-11 12:55:00,69.8,49.2,30.14,NNW,343,3.0,9.0,48,0.00,,,0.00,Wunderground v.1.15,2013-08-11 16:55:00,
2013-08-11 13:00:00,70.3,49.1,30.14,North,355,4.0,4.0,47,0.00,,,0.00,Wunderground v.1.15,2013-08-11 17:00:00,
2013-08-11 13:05:00,69.8,49.2,30.14,North,11,5.0,5.0,48,0.00,,,0.00,Wunderground v.1.15,2013-08-11 17:05:00,
2013-08-11 13:10:00,69.5,48.9,30.14,WNW,286,4.0,4.0,48,0.00,,,0.00,Wunderground v.1.15,2013-08-11 17:10:00,
2013-08-11 13:15:00,70.0,51.0,30.14,WSW,258,2.0,4.0,51,0.00,,,0.00,Wunderground v.1.15,2013-08-11 17:15:00,
2013-08-11 13:20:00,70.6,50.5,30.14,NNE,24,3.0,5.0,49,0.00,,,0.00,Wunderground v.1.15,2013-08-11 17:20:00,
2013-08-11 13:25:00,71.1,49.8,30.14,NNW,338,4.0,5.0,47,0.00,,,0.00,Wunderground v.1.15,2013-08-11 17:25:00,
2013-08-11 13:30:00,70.9,49.7,30.14,NE,50,5.0,5.0,47,0.00,,,0.00,Wunderground v.1.15,2013-08-11 17:30:00,
2013-08-11 13:35:00,70.6,49.4,30.14,NNE,12,5.0,5.0,47,0.00,,,0.00,Wunderground v.1.15,2013-08-11 17:35:00,
2013-08-11 13:40:00,71.5,50.2,30.13,North,5,4.0,9.0,47,0.00,,,0.00,Wunderground v.1.15,2013-08-11 17:40:00,
2013-08-11 13:45:00,71.4,48.9,30.13,NNE,29,5.0,9.0,45,0.00,,,0.00,Wunderground v.1.15,2013-08-11 17:45:00,
2013-08-11 14:00:00,71.2,50.5,30.13,North,11,5.0,5.0,48,0.00,,,0.00,Wunderground v.1.15,2013-08-11 18:00:00,
2013-08-11 14:05:00,71.2,49.4,30.13,North,360,5.0,5.0,46,0.00,,,0.00,Wunderground v.1.15,2013-08-11 18:05:00,
2013-08-11 14:15:00,71.0,49.7,30.13,NNE,30,4.0,8.0,47,0.00,,,0.00,Wunderground v.1.15,2013-08-11 18:15:00,
2013-08-11 14:20:00,71.0,49.7,30.13,WSW,253,3.0,3.0,47,0.00,,,0.00,Wunderground v.1.15,2013-08-11 18:20:00,
2013-08-11 14:30:00,71.3,51.1,30.13,West,271,1.0,2.0,49,0.00,,,0.00,Wunderground v.1.15,2013-08-11 18:30:00,
2013-08-11 14:35:00,71.9,52.2,30.12,North,5,2.0,2.0,50,0.00,,,0.00,Wunderground v.1.15,2013-08-11 18:35:00,
2013-08-11 14:40:00,72.4,49.9,30.12,North,360,3.0,5.0,45,0.00,,,0.00,Wunderground v.1.15,2013-08-11 18:40:00,
2013-08-11 14:45:00,72.2,49.1,30.12,North,355,3.0,5.0,44,0.00,,,0.00,Wunderground v.1.15,2013-08-11 18:45:00,
2013-08-11 15:00:00,71.6,50.3,30.12,WSW,243,5.0,5.0,47,0.00,,,0.00,Wunderground v.1.15,2013-08-11 19:00:00,
2013-08-11 15:05:00,71.7,53.1,30.12,NNW,346,4.0,5.0,52,0.00,,,0.00,Wunderground v.1.15,2013-08-11 19:05:00,
2013-08-11 15:15:00,73.2,51.2,30.12,WSW,251,2.0,2.0,46,0.00,,,0.00,Wunderground v.1.15,2013-08-11 19:15:00,
2013-08-11 15:20:00,74.2,51.5,30.12,WSW,251,2.0,2.0,45,0.00,,,0.00,Wunderground v.1.15,2013-08-11 19:20:00,
2013-08-11 15:30:00,73.5,50.9,30.11,WSW,250,3.0,3.0,45,0.00,,,0.00,Wunderground v.1.15,2013-08-11 19:30:00,
2013-08-11 15:40:00,73.0,50.4,30.11,West,277,2.0,4.0,45,0.00,,,0.00,Wunderground v.1.15,2013-08-11 19:40:00,
2013-08-11 15:45:00,72.3,53.2,30.11,WSW,240,2.0,4.0,51,0.00,,,0.00,Wunderground v.1.15,2013-08-11 19:45:00,
2013-08-11 15:55:00,72.5,50.5,30.11,West,267,2.0,3.0,46,0.00,,,0.00,Wunderground v.1.15,2013-08-11 19:55:00,
2013-08-11 16:00:00,72.7,51.3,30.11,West,271,2.0,2.0,47,0.00,,,0.00,Wunderground v.1.15,2013-08-11 20:00:00,
2013-08-11 16:10:00,72.7,51.9,30.10,West,271,1.0,1.0,48,0.00,,,0.00,Wunderground v.1.15,2013-08-11 20:10:00,
2013-08-11 16:15:00,72.9,52.6,30.11,West,271,0.0,1.0,49,0.00,,,0.00,Wunderground v.1.15,2013-08-11 20:15:00,
2013-08-11 16:30:00,73.1,54.9,30.11,West,277,0.0,1.0,53,0.00,,,0.00,Wunderground v.1.15,2013-08-11 20:30:00,
2013-08-11 16:40:00,72.4,54.3,30.11,West,262,1.0,1.0,53,0.00,,,0.00,Wunderground v.1.15,2013-08-11 20:40:00,
2013-08-11 16:45:00,72.2,53.6,30.11,West,262,1.0,1.0,52,0.00,,,0.00,Wunderground v.1.15,2013-08-11 20:45:00,
2013-08-11 16:50:00,72.3,54.2,30.11,West,262,0.0,1.0,53,0.00,,,0.00,Wunderground v.1.15,2013-08-11 20:50:00,
2013-08-11 17:00:00,73.5,53.7,30.11,NNE,15,1.0,2.0,50,0.00,,,0.00,Wunderground v.1.15,2013-08-11 21:00:00,
2013-08-11 17:10:00,73.4,52.5,30.10,WSW,258,2.0,3.0,48,0.00,,,0.00,Wunderground v.1.15,2013-08-11 21:10:00,
2013-08-11 17:20:00,72.1,54.5,30.10,WSW,244,1.0,1.0,54,0.00,,,0.00,Wunderground v.1.15,2013-08-11 21:20:00,
2013-08-11 17:30:00,71.1,52.6,30.10,WSW,254,1.0,1.0,52,0.00,,,0.00,Wunderground v.1.15,2013-08-11 21:30:00,
2013-08-11 17:35:00,70.8,54.3,30.10,WSW,247,1.0,1.0,56,0.00,,,0.00,Wunderground v.1.15,2013-08-11 21:35:00,
2013-08-11 17:40:00,70.9,53.9,30.10,WSW,239,1.0,3.0,55,0.00,,,0.00,Wunderground v.1.15,2013-08-11 21:40:00,
2013-08-11 17:50:00,70.5,54.5,30.10,SW,230,2.0,2.0,57,0.00,,,0.00,Wunderground v.1.15,2013-08-11 21:50:00,
2013-08-11 18:00:00,70.8,53.8,30.10,WSW,239,3.0,7.0,55,0.00,,,0.00,Wunderground v.1.15,2013-08-11 22:00:00,
2013-08-11 18:05:00,71.3,53.8,30.10,WSW,254,3.0,7.0,54,0.00,,,0.00,Wunderground v.1.15,2013-08-11 22:05:00,
2013-08-11 18:10:00,72.2,54.1,30.10,West,267,3.0,3.0,53,0.00,,,0.00,Wunderground v.1.15,2013-08-11 22:10:00,
2013-08-11 18:15:00,72.3,53.7,30.10,West,270,3.0,3.0,52,0.00,,,0.00,Wunderground v.1.15,2013-08-11 22:15:00,
2013-08-11 18:20:00,72.4,54.3,30.10,West,261,3.0,4.0,53,0.00,,,0.00,Wunderground v.1.15,2013-08-11 22:20:00,
2013-08-11 18:25:00,72.0,53.4,30.10,WSW,246,3.0,4.0,52,0.00,,,0.00,Wunderground v.1.15,2013-08-11 22:25:00,
2013-08-11 18:30:00,71.7,53.1,30.10,WSW,239,3.0,3.0,52,0.00,,,0.00,Wunderground v.1.15,2013-08-11 22:30:00,
2013-08-11 18:35:00,71.5,52.4,30.10,WSW,254,4.0,5.0,51,0.00,,,0.00,Wunderground v.1.15,2013-08-11 22:35:00,
2013-08-11 18:40:00,71.2,52.7,30.10,WSW,257,4.0,4.0,52,0.00,,,0.00,Wunderground v.1.15,2013-08-11 22:40:00,
2013-08-11 18:50:00,70.9,52.9,30.10,WSW,246,4.0,4.0,53,0.00,,,0.00,Wunderground v.1.15,2013-08-11 22:50:00,
2013-08-11 18:55:00,70.8,52.8,30.10,SW,220,4.0,4.0,53,0.00,,,0.00,Wunderground v.1.15,2013-08-11 22:55:00,
2013-08-11 19:00:00,70.7,52.7,30.10,WSW,252,3.0,3.0,53,0.00,,,0.00,Wunderground v.1.15,2013-08-11 23:00:00,
2013-08-11 19:10:00,70.3,52.9,30.10,NW,311,2.0,2.0,54,0.00,,,0.00,Wunderground v.1.15,2013-08-11 23:10:00,
2013-08-11 19:20:00,69.5,51.6,30.10,SW,225,3.0,3.0,53,0.00,,,0.00,Wunderground v.1.15,2013-08-11 23:20:00,
2013-08-11 19:35:00,68.5,50.7,30.10,SSW,198,4.0,5.0,53,0.00,,,0.00,Wunderground v.1.15,2013-08-11 23:35:00,
2013-08-11 19:45:00,67.8,50.5,30.10,SW,232,3.0,3.0,54,0.00,,,0.00,Wunderground v.1.15,2013-08-11 23:45:00,
2013-08-11 19:50:00,67.5,50.8,30.10,WSW,240,2.0,2.0,55,0.00,,,0.00,Wunderground v.1.15,2013-08-11 23:50:00,
2013-08-11 19:55:00,67.4,51.2,30.11,WSW,250,2.0,4.0,56,0.00,,,0.00,Wunderground v.1.15,2013-08-11 23:55:00,
2013-08-11 20:00:00,67.3,51.1,30.10,WSW,245,3.0,3.0,56,0.00,,,0.00,Wunderground v.1.15,2013-08-12 00:00:00,
2013-08-11 20:05:00,67.2,51.0,30.10,SW,223,3.0,3.0,56,0.00,,,0.00,Wunderground v.1.15,2013-08-12 00:05:00,
2013-08-11 20:10:00,67.1,50.9,30.10,SW,232,3.0,3.0,56,0.00,,,0.00,Wunderground v.1.15,2013-08-12 00:10:00,
2013-08-11 20:15:00,67.1,50.9,30.10,WSW,256,3.0,3.0,56,0.00,,,0.00,Wunderground v.1.15,2013-08-12 00:15:00,
2013-08-11 20:20:00,67.0,50.8,30.10,SW,215,3.0,3.0,56,0.00,,,0.00,Wunderground v.1.15,2013-08-12 00:20:00,
2013-08-11 20:25:00,67.1,50.9,30.10,South,185,3.0,3.0,56,0.00,,,0.00,Wunderground v.1.15,2013-08-12 00:25:00,
2013-08-11 20:30:00,67.1,50.9,30.11,WSW,239,3.0,3.0,56,0.00,,,0.00,Wunderground v.1.15,2013-08-12 00:30:00,
2013-08-11 20:40:00,66.8,51.1,30.11,WSW,247,3.0,3.0,57,0.00,,,0.00,Wunderground v.1.15,2013-08-12 00:40:00,
2013-08-11 20:45:00,66.7,51.0,30.11,West,260,2.0,5.0,57,0.00,,,0.00,Wunderground v.1.15,2013-08-12 00:45:00,
2013-08-11 20:55:00,66.9,51.2,30.11,SSW,213,3.0,4.0,57,0.00,,,0.00,Wunderground v.1.15,2013-08-12 00:55:00,
2013-08-11 21:00:00,66.7,51.0,30.11,WSW,241,2.0,3.0,57,0.00,,,0.00,Wunderground v.1.15,2013-08-12 01:00:00,
2013-08-11 21:05:00,66.7,51.0,30.12,West,259,2.0,3.0,57,0.00,,,0.00,Wunderground v.1.15,2013-08-12 01:05:00,
2013-08-11 21:10:00,66.6,51.4,30.12,WSW,239,3.0,5.0,58,0.00,,,0.00,Wunderground v.1.15,2013-08-12 01:10:00,
2013-08-11 21:15:00,66.5,51.3,30.12,SW,220,3.0,5.0,58,0.00,,,0.00,Wunderground v.1.15,2013-08-12 01:15:00,
2013-08-11 21:20:00,66.4,51.6,30.12,WSW,239,2.0,2.0,59,0.00,,,0.00,Wunderground v.1.15,2013-08-12 01:20:00,
2013-08-11 21:25:00,66.2,51.4,30.12,WSW,248,2.0,3.0,59,0.00,,,0.00,Wunderground v.1.15,2013-08-12 01:25:00,
2013-08-11 21:30:00,66.1,50.9,30.12,SW,229,2.0,2.0,58,0.00,,,0.00,Wunderground v.1.15,2013-08-12 01:30:00,
2013-08-11 21:40:00,66.4,51.2,30.12,WSW,253,2.0,2.0,58,0.00,,,0.00,Wunderground v.1.15,2013-08-12 01:40:00,
2013-08-11 21:45:00,66.5,50.8,30.12,SSW,208,2.0,2.0,57,0.00,,,0.00,Wunderground v.1.15,2013-08-12 01:45:00,
2013-08-11 21:50:00,66.6,50.9,30.12,SW,231,3.0,3.0,57,0.00,,,0.00,Wunderground v.1.15,2013-08-12 01:50:00,
2013-08-11 21:55:00,66.6,50.9,30.12,SW,227,2.0,3.0,57,0.00,,,0.00,Wunderground v.1.15,2013-08-12 01:55:00,
2013-08-11 22:00:00,66.4,51.2,30.12,SW,216,2.0,4.0,58,0.00,,,0.00,Wunderground v.1.15,2013-08-12 02:00:00,
2013-08-11 22:05:00,66.4,51.2,30.12,West,274,2.0,5.0,58,0.00,,,0.00,Wunderground v.1.15,2013-08-12 02:05:00,
2013-08-11 22:10:00,66.4,51.2,30.12,SW,234,3.0,3.0,58,0.00,,,0.00,Wunderground v.1.15,2013-08-12 02:10:00,
2013-08-11 22:15:00,66.4,51.2,30.12,WSW,256,3.0,3.0,58,0.00,,,0.00,Wunderground v.1.15,2013-08-12 02:15:00,
2013-08-11 22:20:00,66.3,51.1,30.12,WSW,238,3.0,3.0,58,0.00,,,0.00,Wunderground v.1.15,2013-08-12 02:20:00,
2013-08-11 22:30:00,66.7,51.0,30.12,SW,215,3.0,3.0,57,0.00,,,0.00,Wunderground v.1.15,2013-08-12 02:30:00,
2013-08-11 22:35:00,66.7,51.5,30.11,SW,217,3.0,3.0,58,0.00,,,0.00,Wunderground v.1.15,2013-08-12 02:35:00,
2013-08-11 22:40:00,66.5,51.3,30.12,West,265,3.0,4.0,58,0.00,,,0.00,Wunderground v.1.15,2013-08-12 02:40:00,
2013-08-11 22:55:00,66.3,51.1,30.12,WSW,250,3.0,5.0,58,0.00,,,0.00,Wunderground v.1.15,2013-08-12 02:55:00,
2013-08-11 23:00:00,66.0,51.3,30.12,WSW,241,4.0,4.0,59,0.00,,,0.00,Wunderground v.1.15,2013-08-12 03:00:00,
2013-08-11 23:05:00,65.7,51.4,30.12,WSW,248,3.0,4.0,60,0.00,,,0.00,Wunderground v.1.15,2013-08-12 03:05:00,
2013-08-11 23:15:00,65.2,51.8,30.12,WSW,257,1.0,2.0,62,0.00,,,0.00,Wunderground v.1.15,2013-08-12 03:15:00,
2013-08-11 23:25:00,64.3,52.3,30.12,ESE,113,0.0,1.0,65,0.00,,,0.00,Wunderground v.1.15,2013-08-12 03:25:00,
2013-08-11 23:30:00,63.4,52.2,30.12,ESE,109,1.0,1.0,67,0.00,,,0.00,Wunderground v.1.15,2013-08-12 03:30:00,
2013-08-11 23:40:00,62.5,51.8,30.11,ESE,109,1.0,1.0,68,0.00,,,0.00,Wunderground v.1.15,2013-08-12 03:40:00,
2013-08-11 23:45:00,62.2,51.9,30.11,ESE,109,1.0,1.0,69,0.00,,,0.00,Wunderground v.1.15,2013-08-12 03:45:00,
2013-08-11 23:55:00,62.1,52.2,30.11,West,260,1.0,1.0,70,0.00,,,0.00,Wunderground v.1.15,2013-08-12 03:55:00,